Погода в Аксе

Погода в Аксе : погода сейчас, прогноз погоды и архив. Всё, что Вы хотите узнать о погоде в Аксе!

Хотите узнать прогноз погоды в Аксе? Тогда Вам сюда: Погода в Аксе

Поиск расширенной информации на нашем сайте:

Другие новости

Новости СМИ2

Главная страница сайта

Новости сайта

03.07.2017

Напоминаем, что на нашем специализированном сайте Метеоцентр.Азия вы можете получить высокодетализированные автоматические прогнозы погоды по пунктам России, СНГ и мира в авиационном формате (включающие направление и скорость ветра, видимость, явления погоды, количество и форму облачности, нижнюю и верхнюю границу облачности).

Рекомендуем: очень хочется рисовать в Manga Studio.

Погода в Аксе - сегодня

Время (UTC), дата Ветер
(°,м/с) 
Видим.   Явления Облачность Т
(°С)
Тd
(°С)
f(%) Тe
(°С)
Pmin
(гПа)
dP
(гПа)
Po
(мм)
O2
(г/м3)
Тmin Tmax R s Состояние
почвы
18 20.07.17 060 (СВ) н/о  {гроза}  1/0 средняя 
[Ac trans]
+11.5 +11 97 +17  1010.8  0.6  695  267           
21 20.07.17 060 (СВ) 20000 м    6/3 1000 м верхняя 
[Sc|Ci sp]
+10.3 +10.1 99 +14  1011.4  0.1  695  268           
00 21.07.17 070 (В) 20000 м    9/9 1000 м кучево-дожд. 
[Cb cap]
+15.1 +13.2 88 +24  1010.6  0.7  696  263  +10        сухая 
03 21.07.17 270 (З) 20000 м  в посл. час ливневой дождь  10/10 1000 м кучево-дожд. 
[Cb cap]
+17.6 +15.6 88 +30  1007.9  -1.7  695  259           
06 21.07.17 060 (СВ) 20000 м  {ливн. осадки}  10/10 1000 м кучево-дожд. 
[Cb cap]
+20.3 +16.1 77 +33  1007.2  695  257           
09 21.07.17 230 (ЮЗ) 20000 м  гроза, ливневой дождь  8/8 1000 м кучево-дожд. 
[Cb cap]
+22.3 +17.9 76 +39  1004.2  -2.1  693  254           
12 21.07.17 040 (СВ) 20000 м  гроза без осадков  4/4 1000 м кучево-дожд. 
[Cb cap]
+19.5 +17.5 88 +37  1006.6  1.5  694  257    +22.9     
15 21.07.17 120 (ЮВ) н/о  {гроза}  1/1 1000 м 
[Cu med, cong]
+13.5 +13.2 98 +23  1010.3  1.6  695  264           
18 21.07.17 100 (В) н/о  {гроза}  ясно 
+10.3 +10 98 +14  1011.8  0.4  696  268           
21 21.07.17 140 (ЮВ) 20000 м    ясно 
+8.1 +8.1 100 +9  1013  0.4  696  271           
00 22.07.17 210 (ЮЗ) 20000 м    ясно 
+15.1 +12.5 84 +21  1010.8  0.1  696  263  +7.7        влажная 
03 22.07.17 190 (Ю) 20000 м    3/3 1000 м верхняя 
[Cu hum|Ci fib]
+23 +12 50 +29  1007.5  -1  695  256           
06 22.07.17 310 (СЗ) 5{10}  20000 м    8/3 1000 м средняя, верхняя 
[Cu hum|Ac lent|Ci fib]
+25.1 +9.6 37 +27  1005.3  -1.5  694  254           
09 22.07.17 290 (З) 3{10}  20000 м    9/4 1000 м кучево-дожд., средняя 
[Cb calv|Ac lent]
+24.9 +10.3 40 +28  1004.8  -0.5  694  254           
12 22.07.17 100 (В) 20000 м    4/0 средняя 
[Ac lent]
+20.9 +13.1 61 +28  1005.6  -0.2  694  257    +25.5       
15 22.07.17 220 (ЮЗ) н/о    8/4 1000 м кучево-дожд., средняя 
[Cb cap|Ac lent]
+15 +13.1 88 +23  1008.8  1.4  695  263           
18 22.07.17 090 (В) н/о    3/0 средняя 
[Ac lent]
+13.8 +12.1 89 +21  1009.1  -0.1  695  264           
21 22.07.17 210 (ЮЗ) 20000 м    3/0 средняя 
[Ac lent]
+11.7 +11 95 +17  1010.3  0.5  695  266           
00 23.07.17 210 (ЮЗ) 20000 м    3/3 1000 м 
[Sc]
+18.8 +12 65 +26  1008.7  0.5  695  260  +11.1        сухая 
03 23.07.17 330 (СЗ) 20000 м    8/8 1000 м кучево-дожд. 
[Cb cap]
+21.8 +11.3 51 +26  1007.2  -0.6  695  257           
06 23.07.17 350 (С) 20000 м    6/6 1000 м кучево-дожд. 
[Cb cap]
+23 +11 47 +27  1006.3  -0.6  694  256           
09 23.07.17 080 (В) 5{13}  20000 м    9/9 1000 м кучево-дожд. 
[Cb cap]
+19.5 +12.1 62 +26  1008  0.7  695  259           
12 23.07.17 180 (Ю) 2{10}  20000 м  в посл. час гроза{ливн. осадки}  9/9 1000 м кучево-дожд. 
[Cb cap]
+14.4 +13.5 94 +23  1012.2  2.5  697  264    +24.4     
15 23.07.17 110 (В) н/о    ясно 
+10.9 +10.6 98 +15  1014.6  1.2  698  268           
18 23.07.17 160 (Ю) н/о    ясно 
+9.3 +9.3 100 +12  1015.4  0.2  698  270           
Время (UTC), дата Ветер
(°,м/с) 
Видим.   Явления Облачность Т
(°С)
Тd
(°С)
f(%) Тe
(°С)
Pmin
(гПа)
dP
(гПа)
Po
(мм)
O2
(г/м3)
Тmin Tmax R s Состояние
почвы

Для получения пояснительной информации подведите курсор к названию столбца.

ПОГОДА в Аксе - архив

Всё, что Вы хотите узнать о погоде в Аксе - удобно и подробно!

Выберите нужную дату (начиная с 1 января 2015* года) и нажмите кнопку "Найти".
Будут отображены архивные сводки погоды по пункту Акса, начиная с указанной даты.


Отображать данные в формате CSV (для использования в таблицах Excel)


Внимание! Наш архив погоды предназначен исключительно для личного некоммерческого использования в познавательных целях. Если Вам необходимы официальные справки о состоянии погоды (для производственных, юридических, коммерческих и т.п. целей), обращайтесь в органы Росгидромета.

*Примечание: данная дата относится к архиву по метеостанциям СССР (Россия, СНГ, Балтия).
Архив по метеостанциям Зарубежной Европы и Азии (кроме Китая) хранится 10 дней, по другим регионам земного шара (Китай, Африка, Америка, Австралия, Океания) - 1 день.

Акса - район местоположения метеостанции


Название, широта, долгота, высота метеостанции:
Акса 50.3°ш. 113.3°д. 732 м над ур. моря [Российская Федерация]

Дополнительная информация

В oтличие oт бoльшинства пoгoдных сайтoв мы публикуем пoдрoбную метеoинфoрмацию в детальнoм прoфессиoнальнoм фoрмате.

Характеристики температуры и влажнoсти вoздуха измеряются на высoте 2 м в тени вдали oт зданий и деревьев.
Скoрoсть ветра измеряется на высoте 10 м (на урoвне рoста челoвека скoрoсть ветра ниже в 1.5-2 раза). Если метеoстанция нахoдится в гoрoде или в лесу, тo скoрoсть ветра занижена на 2-4 м/с пo сравнению с oткрытым местoм. Скoрoсть ветра над акватoриями крупных рек и oзёр, а также на вершинах хoлмoв на 2-5 м/с выше, чем в oбычных услoвиях.
Атмoсфернoе давление в разных тoчках местнoсти мoжет значительнo oтличаться oт давления на метеoстанции, в зависимoсти oт услoвий рельефа (при пoдъёме на 10 м давление пoнижается примернo на 1 мм рт.ст.).